FLOCK 3P-83 (42050 NORAD) Tracking and Keplerian Element Data

This shows tracking and keplerian element data for the satellite.

Feedback or suggestion? Click here.




ElementValue
Catalog42050
NameFLOCK 3P-83
Epoch Orbit5530
Epoch Day45.44362143
Epoch Year2018
RAAN111.0613
Inclination97.4678
Eccentricity0.0009992
Argument of Perigee73.2006
Mean Anonmoly287.0327
Mean Motion15.23916119
Decay Rate1.734E-05
L11 42050U 17008DG 18045.44362143 .00001734 00000-0 74694-4 0 9991
L22 42050 97.4678 111.0613 0009992 73.2006 287.0327 15.23916119 55304

Live tracking and technical data element details for FLOCK 3P-83 (NORAD 42050). FLOCK 3P-83 can be tracked NOW for your location showing map with azimuth and elevation plus other details from your city location.

Track the satellite on the map from your city or location and see movement details for azimuth, elevation, latitude, longitude, range, height, and movement on the map or in text.







IsCatalogInMostPopularTable: catalog: 42050, numindb: 95
Update: records affected: 1



GetName: 42050 FLOCK 3P-83

Hit Count: updated at: Sat, 21 Jul 2018 08:00:34 GMT